sat.trackr.live / text

‹ back to catalog

STARLINK-5951

NORAD 56918 · 2023-083AU

PAYLOAD ACTIVE UNKNOWN

§ Identity

Operator
Country
US
Launch date
2023-06-12
Launch site
AFETR
Launch vehicle
Mass (kg)
RCS (m²)

Purposes: comms

External: N2YO · Heavens-Above · Gunter

§ Orbital elements

Epoch: 2026-09-20T16:36:35.805312Z

Period
94.27 min
Inclination
43.0041°
Eccentricity
0.0001462
Mean motion
15.27577706 rev/d
Perigee alt
482.1 km
Apogee alt
484.1 km
Semi-major
6,861.2 km
B*
1.5451e-5
RAAN
49.1976°
Arg perigee
262.5512°
Mean anomaly
97.5173°
Rev number
18,162

§ Raw data

STARLINK-59511 56918U 23083AU  26263.69208108  .00000163  00000+0  15451-4 0  99972 56918  43.0041  49.1976 0001462 262.5512  97.5173 15.27577706181622

JSON: /api/v1/satellites/56918 · /tle

For live sub-satellite position, see the globe view (requires WebGL).

§ Visibility from observer

Set your observer location to see the next 7 days of passes ≥ 10°. The values pass through the URL so the page stays shareable.

No JS? Fill the form by hand. The geolocation button needs JavaScript.